Regional Weather Roundup
Issued by NWS Green Bay, WI

Home | Current Version | Previous Version | Text Only | Print | Product List | Glossary On
Versions: 1 2 3 4 5 6 7 8 9 10 11 12 13 14 15 16 17 18 19 20 21 22 23 24 25 26 27 28 29 30 31 32 33 34 35 36 37 38 39 40 41 42 43 44 45 46 47 48 49 50
125
ASUS43 KGRB 051611
RWRGRB

NORTH-CENTRAL AND NORTHEAST WISCONSIN REGIONAL WEATHER ROUNDUP
NATIONAL WEATHER SERVICE GREEN BAY WI
1000 AM CST MON DEC 05 2016

WIZ005-009-010>012-018-019-051700-
NORTH CENTRAL WISCONSIN

CITY           SKY/WX    TMP DP  RH WIND       PRES   REMARKS
IRONWOOD       NOT AVBL
MANITOWISH WTR NOT AVBL
ARBOR VITAE    NOT AVBL
EAGLE RIVER    NOT AVBL
LAND O LAKES   NOT AVBL
RHINELANDER    MOSUNNY   32  29  88 SW6       29.84R
PHILLIPS       NOT AVBL
ANTIGO         NOT AVBL
TOMAHAWK       NOT AVBL
MERRILL        NOT AVBL
$$

WIZ013-073-051700-
NORTHEAST WISCONSIN

CITY           SKY/WX    TMP DP  RH WIND       PRES   REMARKS
IRON MOUNTAIN  PTSUNNY   35  26  69 W7        29.83S
MARINETTE      NOT AVBL
$$

WIZ017-030-035>037-045-051700-
CENTRAL WISCONSIN

CITY           SKY/WX    TMP DP  RH WIND       PRES   REMARKS
MEDFORD        NOT AVBL
WAUSAU         NOT AVBL
MOSINEE        NOT AVBL
MARSHFIELD     NOT AVBL
WISC RAPIDS    NOT AVBL
STEVENS POINT  NOT AVBL
WAUPACA        NOT AVBL
SHAWANO        NOT AVBL
CLINTONVILLE   NOT AVBL
WAUTOMA        NOT AVBL
$$

WIZ038-039-048-051-051700-
FOX VALLEY

CITY           SKY/WX    TMP DP  RH WIND       PRES   REMARKS
NWS GREEN BAY  CLOUDY    36  32  85 SW6       29.93R
APPLETON       CLOUDY    34  32  93 SW9       29.91R
OSHKOSH        CLOUDY    34  30  85 S12       29.93R
FOND DU LAC    CLOUDY    34  30  85 S8        29.94R
$$

WIZ022-050-052-051700-
EAST CENTRAL WISCONSIN

CITY           SKY/WX    TMP DP  RH WIND       PRES   REMARKS
EPHRAIM        NOT AVBL
WASHINGTON ISL NOT AVBL
STURGEON BAY   CLOUDY    36  32  87 SW5       29.92R
MANITOWOC      CLOUDY    37  32  81 SW9       29.95R
SHEBOYGAN      CLOUDY    33  29  85 SW9       29.96R
$$

LMZ563-521-522-541>543-051700-
LAKESHORE

STATION/POSITION TIME  TEMP    WIND        PRES    VSBY  WAVE
                       AIR SEA DIR/SP/G                  HT/PER
                 (UTC) (F)     (DEG/KT/KT) (MB)    (MI)  (FT/S)
SHEBOYGAN LKSHOR 1500   35     220/  8/ 10 1014.5R
KEWAUNEE LKSHORE 1530   35     200/  7/  8 1013.3R
ALGOMA MARINA    1506          240/  5/  8   N/A
NORTHPORT PIER   1540   40     280/  5/ 15 1012.2R
SISTER BAY LKSHO 1453   39     280/ 20/ 24   N/A
CHAMBERS ISLAND  1540   37     210/  8/ 13 1012.2R
MENOMINEE LKSHOR 1530   35     190/  6/  9 1011.8R
$$




USA.gov is the U.S. government's official web portal to all federal, state and local government web resources and services.